◎2007 YZの発見と接近    [from JSGA Web News No. 123]



JSGA Web News No. 123                                              2007 Dec. 20



アポロ型特異小惑星 2007 YZの発見と接近

 美星スペースガードセンターで1.0-m f/3.0反射を使用して行なわれているBATTeRS

スカイサーベイで,2007年12月17日UTにふたご座を撮影した捜索フレーム上に動きの

速い18等級の小惑星が,当直の浦川聖太郎氏と坂本強氏(S. Urakawa & T. Sakamoto)

によって発見された.小惑星は,発見当時,64' の高速で空を移動していた.この小

惑星は,上尾の門田健一氏(K. Kadota, Ageo)によって, 同夜に確認された.発見

観測と確認観測を下に示す.

 なお,10月以後,お知らせしている美星でのサーベイ成果は,11月の発見の半分が

12月24日発行のMPCに回ってしまったため,このMPCが発行されてから,11月のサーベ

イ結果をお知らせすることにしている.



     K07Y00Z* C2007 12 17.66571 07 33 05.21 +20 25 59.4          18.4 R EY020300

     K07Y00Z  C2007 12 17.66861 07 33 04.93 +20 26 09.9          18.8 R EY020300

     K07Y00Z  C2007 12 17.67151 07 33 04.77 +20 26 21.2          18.5 R EY020300

     K07Y00Z  C2007 12 17.67440 07 33 04.53 +20 26 31.4          18.8 R EY020300

     K07Y00Z  C2007 12 17.67728 07 33 04.33 +20 26 42.5          18.4 R EY020300

     K07Y00Z  C2007 12 17.68019 07 33 04.11 +20 26 53.1          18.7 R EY020300

     K07Y00Z  C2007 12 17.68308 07 33 03.80 +20 27 03.8          19.1 R EY020300

     K07Y00Z  C2007 12 17.76024 07 32 57.83 +20 31 50.7                 EY020349

     K07Y00Z  C2007 12 17.76259 07 32 57.66 +20 31 59.9                 EY020349

     K07Y00Z  C2007 12 17.76494 07 32 57.49 +20 32 08.2                 EY020349

     K07Y00Z  C2007 12 17.76729 07 32 57.29 +20 32 17.3          18.0 V EY020349



  小惑星は,その日の内に他の観測所で捕らえられ,アポロ型特異小惑星であること

が判明した(MPEC Y20 (2007)).



 その後も,翌12月18日と19日にも,小惑星は,各地で捕らえられ,軌道がほぼ確定

した.次の軌道は,2007年12月17日から12月19日までに行なわれた58個の観測から決

定されたもの.なお,元期を観測に適した日に変更してある.

               。

       Mo= 275.6730                Epoch = 2007 Dec. 26.0 TT

       ω = 129.5026                   e =   0.366902          H = 19.6

       Ω =  90.7884    (2000.0)       a =   1.045126 AU       G =  0.15

       i =  16.6311                   n゚=   0.9224676

       q =   0.661667 AU              P =   1.07 年



 この軌道によると,小惑星は,発見当時,地球から0.226 AUの位置をその近日点(

T = 2008年3月26日)に向け運行中で,2008年1月9日には地球に0.117 AUまで接近

し,12月下旬から1月上旬にかけて,16等級まで明るくなることが判明した.なお,

小惑星の直径は,410-mくらいと推測される.



  その軌道図を下に示す.



http://www.spaceguard.or.jp/ja/mpnews/2007yz.jpg



 以下に2月1日までの経路図と位置予報を下に示す.ただし,軌道の精度は,まだ,

十分ではないために,予報位置には多少の誤差がある.



http://www.spaceguard.or.jp/ja/mpnews/2007yzeph.jpg



2008/        α  (2000) δ      △      r     日々運動   Elong.  Phase   V  

  0h TT     h  m       。  ,        AU      AU    ,  PA 。     。      。      等

Dec. 20   07 30.28  +23 03.8    0.204   1.174  78.7/345   156.9   19.2   17.5

     21   07 28.78  +24 19.8    0.197   1.169  84.8/344   158.3   18.1   17.3

     22   07 27.09  +25 41.4    0.190   1.164  91.3/344   159.7   17.0   17.2

     23   07 25.17  +27 08.9    0.183   1.158  98.2/343   161.0   16.0   17.1

     24   07 22.99  +28 42.8    0.177   1.153 105.7/342   162.2   15.1   17.0

     25   07 20.52  +30 23.5    0.170   1.148 113.6/342   163.2   14.4   16.9

     26   07 17.72  +32 11.2    0.164   1.142 121.9/341   163.8   13.9   16.8

     27   07 14.54  +34 06.4    0.159   1.137 130.7/340   164.0   13.8   16.7

     28   07 10.91  +36 09.2    0.153   1.131 139.8/340   163.8   14.1   16.6

     29   07 06.77  +38 20.0    0.148   1.126 149.2/339   163.0   14.8   16.5

     30   07 02.02  +40 38.6    0.143   1.120 158.7/338   161.6   16.1   16.5

     31   06 56.54  +43 05.1    0.139   1.114 168.2/337   159.7   17.8   16.5

Jan.  1   06 50.19  +45 38.9    0.134   1.109 177.6/335   157.4   20.0   16.5

      2   06 42.79  +48 19.6    0.131   1.103 186.5/334   154.7   22.4   16.5

      3   06 34.09  +51 05.9    0.127   1.097 194.7/332   151.6   25.2   16.5

      4   06 23.79  +53 56.4    0.125   1.091 202.0/330   148.3   28.3   16.5

      5   06 11.49  +56 49.2    0.122   1.085 208.1/327   144.7   31.5   16.6

      6   05 56.67  +59 41.4    0.120   1.079 212.7/324   141.0   35.0   16.6

      7   05 38.69  +62 29.5    0.119   1.073 215.7/320   137.2   38.5   16.7

      8   05 16.74  +65 09.3    0.118   1.067 217.0/315   133.2   42.2   16.7

      9   04 49.96  +67 35.1    0.117   1.061 216.5/309   129.2   45.9   16.8

     10   04 17.60  +69 40.3    0.117   1.055 214.3/301   125.1   49.6   16.9

     11   03 39.46  +71 17.8    0.118   1.049 210.4/292   121.1   53.4   17.0

     12   02 56.48  +72 20.9    0.119   1.043 205.2/282   117.2   57.0   17.1

     13   02 11.11  +72 45.5    0.120   1.037 198.9/271   113.3   60.6   17.2

     14   01 26.69  +72 32.0    0.122   1.030 191.7/261   109.5   64.1   17.4

     15   00 46.20  +71 45.5    0.124   1.024 183.8/251   105.8   67.5   17.5

     16   00 11.21  +70 33.8    0.126   1.018 175.6/243   102.2   70.8   17.6

     17   23 41.94  +69 04.6    0.129   1.012 167.3/236    98.8   73.9   17.8

     18   23 17.80  +67 24.5    0.132   1.005 159.0/231    95.6   76.9   17.9

     19   22 57.94  +65 38.6    0.135   0.999 150.8/226    92.4   79.8   18.0

     20   22 41.52  +63 50.3    0.139   0.992 143.0/222    89.5   82.5   18.2

     21   22 27.84  +62 02.0    0.142   0.986 135.5/219    86.6   85.1   18.3

     22   22 16.31  +60 15.2    0.146   0.979 128.4/217    83.9   87.5   18.5

     23   22 06.51  +58 30.9    0.151   0.973 121.7/215    81.3   89.9   18.6

     24   21 58.09  +56 49.6    0.155   0.966 115.5/213    78.9   92.1   18.7

     25   21 50.78  +55 11.7    0.159   0.960 109.7/211    76.5   94.2   18.9

     26   21 44.39  +53 37.3    0.164   0.953 104.4/210    74.3   96.2   19.0

     27   21 38.76  +52 06.2    0.168   0.947  99.4/209    72.2   98.1   19.1

     28   21 33.76  +50 38.5    0.173   0.940  94.9/207    70.1   99.9   19.3

     29   21 29.28  +49 14.0    0.178   0.933  90.7/206    68.2  101.6   19.4

     30   21 25.26  +47 52.6    0.183   0.927  86.9/206    66.3  103.3   19.5

     31   21 21.63  +46 33.9    0.188   0.920  83.4/205    64.6  104.8   19.7

Feb.  1   21 18.34  +45 17.9    0.193   0.914  80.3/204    62.9  106.3   19.8





軌道と残差:

 

2007 YZ

Epoch 2007 Dec. 26.0 TT = JDT 2454460.5                 MPCN

M 275.67302              (2000.0)            P               Q

n   0.92246757     Peri.  129.50261     -0.73049433     +0.62006279

a   1.0451260      Node    90.78845     -0.68074545     -0.62774323

e   0.3669023      Incl.   16.63114     -0.05443950     -0.47059598

P   1.07           H   19.6           G   0.15           U   9

Residuals in seconds of arc 

071217 300  0.1+  0.0     071217 595  0.3+  0.5+    071218 246  0.1+  0.5-  

071217 300  0.8-  0.3-    071218 H01  0.2+  0.3+    071218 246  0.0   0.5-  

071217 300  0.0   0.1+    071218 H01  0.1-  0.3+    071218 246  0.1+  0.5-  

071217 300  0.3-  0.5-    071218 H01  0.1+  0.3+    071218 246  0.0   0.0   

071217 300  0.0   0.2-    071218 H01  0.0   0.1+    071218 246  0.2-  0.4-  

071217 300  0.0   0.5-    071218 704  0.1+  0.6+    071218 246  0.1+  0.5-  

071217 300  1.3-  0.6-    071218 704  0.2+  0.2-    071219 H45  0.1+  0.2-  

071217 349  0.3+  0.5-    071218 704  0.6+  0.1-    071219 H45  0.1-  0.4-  

071217 349  0.3+  0.0     071218 704  0.1-  1.4+    071219 H45  0.2-  0.7-  

071217 349  0.4+  0.4-    071218 704  0.3+  0.7+    071219 H45  0.0   0.5-  

071217 349  0.1+  0.1-    071218 704  0.2+  0.1+    071219 H45  0.2-  0.8-  

071217 461  0.0   0.2+    071218 704  0.2+  0.9+    071219 H45  0.2+  0.2-  

071217 461  0.1-  0.0     071218 704  0.0   0.2+    071219 H45  0.1+  0.8-  

071217 461  0.1+  0.1+    071218 704  0.2+  0.7+    071219 247  0.0   0.3+  

071217 A17  0.3-  0.4-    071218 704  0.1+  0.2+    071219 247  0.2-  0.4+  

071217 461  0.0   0.0     071218 300  0.5-  1.0-    071219 247  0.2+  0.9+  

071217 A17  0.9+  0.8-    071218 300  0.0   0.6-    071219 247  0.3+  0.8+  

071217 461  0.0   0.4+    071218 300  0.1+  0.2+    071219 247  0.4-  0.6+  

071217 A17  0.5-  0.1-    071218 300  0.9-  0.6+                            

071217 595  0.1+  0.8+    071218 300  0.1+  0.3+                            

 

日本スペースガード協会            (c) Copyright JSGA 2007           中野 主一

         **** Don't distribute anyone except personal use only ****

                (C) Copyright 2007 OAA/ComputingSection

write mail from CFAD0::NAKANO on 2007-12-20 05:24:28(JST).



戻ります。